Wind_Speed
21 20 19 18 17 16 15 14 13 12 12 11 10 8 8 7 7 6 6 6 6 6 7 7 8 8 9 10 10 11 12 12 12 12 12 13 13 12 13 14 14 14 15 15 15 16 16 17 17 18 19 19 20 21 21 21 22 22 22 22 22 22 24 22 14 13 20 22 21 22 25 25 23 21 19 20 22 23 25 26 27 27 27 29 32
21 21 20 19 18 17 16 15 13 13 13 11 9 8 8 7 7 7 7 7 7 8 8 9 9 9 10 11 12 12 12 12 13 12 12 13 13 14 14 15 15 15 15 16 16 16 17 17 17 18 20 21 21 21 21 21 21 22 21 21 21 22 23 24 20 15 18 23 23 22 24 23 22 23 21 19 21 23 22 22 23 25 25 26 31
20 21 21 19 18 17 17 15 13 14 13 11 10 9 8 8 7 8 8 8 8 9 10 10 10 10 11 12 13 13 13 13 13 13 13 13 13 14 15 15 16 16 16 16 17 17 17 17 17 19 21 22 22 22 21 22 22 22 21 21 21 22 23 23 22 20 19 23 24 22 23 23 23 23 23 22 21 20 19 19 21 23 24 26 30
20 20 20 20 19 18 17 16 14 14 13 11 11 10 9 9 9 9 9 9 9 10 11 11 11 12 13 14 14 14 14 14 14 15 14 13 13 14 15 15 16 16 16 16 17 18 17 16 18 19 21 23 23 23 23 23 22 21 22 22 20 21 22 23 23 22 21 22 23 22 23 24 23 22 23 23 22 20 19 20 21 22 24 25 28
20 20 20 20 20 18 18 16 15 14 13 12 12 11 10 10 10 10 10 10 10 11 11 12 12 14 14 15 15 15 15 16 15 15 14 13 13 14 14 15 15 15 16 17 17 19 18 16 17 18 20 23 23 24 25 24 23 24 24 23 21 21 21 22 22 23 22 21 23 24 24 23 23 23 22 21 21 23 23 21 21 22 23 25 27
21 21 20 20 20 19 17 16 15 14 13 13 13 12 11 11 11 11 11 11 12 12 13 13 13 14 15 15 15 15 16 18 17 16 14 13 13 14 14 15 15 15 17 17 17 19 18 16 17 18 20 24 24 25 27 28 27 28 27 24 22 21 21 20 21 22 22 21 22 23 23 23 23 23 23 24 24 24 25 25 24 22 21 23 26
20 21 21 20 19 18 17 16 15 15 14 14 13 12 12 12 12 12 11 12 12 13 14 14 14 14 14 15 15 15 17 19 19 18 16 14 13 14 14 15 16 16 17 18 18 19 18 17 18 19 21 24 26 27 31 31 30 29 28 26 24 20 19 20 20 21 21 20 20 21 21 22 22 21 23 27 26 24 26 29 30 30 28 26 26
19 21 21 20 19 18 17 16 16 15 15 14 14 14 14 13 13 12 12 13 13 13 14 14 14 15 15 14 15 16 18 19 19 18 18 16 14 14 14 15 16 16 17 18 19 21 21 20 21 21 23 25 27 29 32 31 30 29 28 28 24 18 17 19 19 20 19 19 20 20 20 21 21 22 25 26 25 25 27 27 27 30 32 31 29
19 20 19 19 19 18 17 17 17 16 16 16 15 15 14 14 14 14 13 13 14 14 14 14 14 15 15 14 15 18 19 18 17 17 17 16 15 15 14 15 16 17 18 18 20 22 22 21 21 21 23 25 28 31 31 26 25 27 28 27 21 15 15 16 17 18 18 18 19 19 19 19 20 22 24 22 21 23 26 26 24 26 30 31 30
17 17 18 19 18 17 17 17 17 17 16 16 16 15 14 15 14 14 14 13 14 14 13 13 14 15 15 14 14 16 17 16 15 15 16 16 16 15 15 15 17 18 18 18 20 23 24 22 21 21 23 27 30 34 32 25 22 24 27 24 17 12 14 16 16 17 16 16 17 18 17 17 19 21 21 21 22 23 25 24 23 26 27 26 27
17 17 17 18 18 18 18 17 17 17 16 16 15 15 15 15 15 15 14 14 14 13 12 12 13 13 15 15 15 15 16 15 13 13 15 16 16 16 16 16 17 18 18 18 19 23 25 24 22 22 25 28 31 34 32 27 23 24 26 24 15 11 13 16 17 18 17 16 16 16 15 16 19 20 20 22 24 25 24 23 22 23 22 18 19
16 17 17 18 19 18 17 18 17 17 16 15 15 15 14 15 15 15 14 14 13 13 12 12 12 12 13 14 15 16 14 13 13 13 14 16 16 16 15 16 16 16 17 17 18 22 25 24 23 23 25 27 30 33 32 28 26 26 26 24 20 16 14 17 20 22 20 19 18 17 16 17 19 20 21 23 25 25 23 22 20 20 21 19 17
16 16 17 17 18 18 17 17 17 16 16 15 15 15 14 14 14 14 14 14 13 13 12 12 12 12 13 14 16 17 14 12 13 13 13 14 16 15 14 14 15 16 16 16 17 21 24 23 22 24 26 28 31 33 31 28 28 27 24 23 23 21 18 19 23 25 25 23 19 17 18 19 18 20 23 24 25 25 24 23 23 22 23 23 23
17 18 17 16 17 17 17 17 17 16 15 15 15 14 14 14 14 13 14 14 13 13 12 12 13 14 14 14 17 19 15 11 12 12 11 12 13 14 14 13 14 15 15 14 16 20 23 23 22 23 27 30 34 34 31 28 28 26 24 23 23 22 22 23 26 27 28 26 21 19 20 20 21 23 24 25 26 26 26 27 28 26 25 27 28
18 19 17 16 17 17 16 17 17 16 15 15 15 14 14 14 13 14 14 14 13 13 13 13 15 14 15 15 17 20 18 12 11 12 11 11 12 13 13 12 13 15 14 13 16 21 24 23 22 23 26 29 33 34 31 27 25 25 24 23 23 23 22 24 26 27 27 26 24 23 23 24 24 24 24 25 27 27 27 26 25 25 26 27 27
17 18 18 17 16 16 16 17 16 15 15 15 15 14 14 14 15 16 15 14 13 13 14 14 14 14 14 16 18 21 20 14 11 12 13 13 13 13 13 12 12 14 15 13 14 19 24 24 23 24 26 28 31 32 31 27 25 24 24 23 23 23 22 22 24 26 27 27 26 25 25 24 25 24 24 25 26 27 26 23 21 23 24 22 20
15 17 18 17 16 16 17 17 16 16 15 15 15 15 15 15 15 15 15 14 14 13 14 14 13 13 14 16 19 23 22 17 13 12 14 14 14 12 13 13 13 14 14 13 13 16 21 24 25 26 27 28 30 31 30 27 24 24 24 24 25 26 25 25 25 25 26 27 27 27 26 25 24 24 24 25 26 27 26 23 23 25 23 16 12
14 16 17 17 16 17 16 16 16 16 15 15 15 15 16 14 14 14 14 15 15 14 14 14 13 13 13 14 18 23 24 20 15 13 13 14 14 14 13 14 15 14 14 15 14 15 18 21 25 28 27 27 29 32 32 28 23 22 22 23 24 26 27 29 29 27 26 27 29 30 30 28 26 26 26 25 26 27 25 24 25 25 21 16 13
16 17 17 17 17 17 16 16 16 16 15 15 15 16 16 14 13 14 14 14 14 13 13 13 14 15 15 15 16 20 24 24 20 17 14 14 16 17 15 15 16 15 15 16 15 16 17 19 24 28 27 25 27 32 35 31 23 19 19 20 21 22 24 29 31 29 28 28 29 31 31 31 29 27 27 27 27 27 26 25 25 24 20 19 19
18 18 18 18 17 17 16 16 15 16 16 16 15 15 14 13 13 14 13 13 12 12 12 12 12 13 15 17 18 19 22 23 23 21 19 16 16 17 18 19 18 15 15 16 17 17 18 20 23 27 27 25 24 29 35 34 27 20 17 17 18 18 20 26 29 29 28 28 28 29 30 30 29 29 29 28 29 29 28 27 27 24 20 20 20
20 19 19 18 18 17 17 16 17 17 17 16 15 14 13 12 13 14 13 12 12 11 11 11 10 10 9 12 15 17 19 20 20 22 22 20 18 17 19 20 18 16 15 16 16 17 19 20 23 26 28 26 23 25 30 33 32 27 20 16 19 19 19 21 25 27 29 29 28 29 31 30 30 31 30 31 31 30 28 28 28 26 22 20 20
20 20 19 19 18 18 18 18 18 18 16 16 15 14 14 13 13 13 12 11 11 11 10 10 10 9 7 7 9 11 14 17 18 17 19 21 21 19 19 18 17 16 15 14 15 17 18 21 23 26 28 26 23 23 26 29 33 33 25 19 22 24 22 20 22 25 27 29 29 30 31 32 32 32 31 32 32 31 29 28 29 29 27 23 21
20 20 19 19 19 18 18 18 17 16 15 15 15 15 14 14 13 13 12 12 11 10 10 10 10 10 9 8 7 7 9 14 16 16 15 17 19 20 19 18 18 16 14 13 14 16 18 21 23 24 27 26 23 22 24 26 29 31 29 24 24 26 26 24 23 23 25 27 28 28 30 32 33 32 32 32 32 31 29 28 28 29 31 30 28
20 20 20 20 19 18 17 16 16 15 15 15 15 14 14 13 13 13 12 11 11 10 10 11 11 11 11 10 9 8 8 11 14 15 15 14 15 17 18 17 18 17 14 13 15 17 18 20 21 22 24 24 22 22 23 25 26 27 28 27 26 26 28 27 25 24 24 26 27 27 27 29 32 33 32 31 30 29 29 29 28 28 31 34 35
20 20 19 19 18 18 17 17 16 15 15 14 13 12 12 11 11 10 10 9 9 10 10 10 11 11 11 10 10 10 10 10 11 12 13 13 14 16 16 15 16 16 15 14 16 17 17 18 18 20 23 23 22 23 23 24 26 26 26 27 27 26 27 28 27 25 24 24 26 27 26 26 29 32 33 32 31 30 29 29 30 30 31 35 39
20 20 19 19 19 18 18 17 16 15 14 13 13 12 11 11 10 9 9 9 8 9 9 10 10 11 11 11 10 10 10 11 13 13 13 13 15 15 14 13 14 14 14 15 16 16 17 18 17 18 22 22 21 23 23 23 24 26 25 26 27 26 27 29 28 26 25 23 24 27 28 26 26 29 32 33 33 32 30 28 30 32 32 33 37
21 20 20 20 19 18 18 17 16 14 12 11 11 10 10 10 11 11 9 8 7 8 9 9 9 10 11 11 11 10 10 12 15 16 16 15 15 15 14 13 14 14 15 17 17 16 16 17 17 17 20 22 21 21 23 23 23 25 25 26 26 26 26 28 28 27 27 25 23 25 29 28 26 28 31 32 32 32 31 30 31 32 32 32 33
21 20 20 19 19 18 18 17 16 15 15 13 13 13 12 12 14 15 13 11 10 10 11 11 10 9 10 10 10 10 10 12 15 16 16 16 16 15 14 14 14 15 17 18 18 16 14 15 16 17 19 22 22 20 22 23 23 24 25 25 26 25 25 26 28 28 28 27 23 23 27 28 27 27 29 30 30 31 32 32 32 32 32 32 30
21 20 19 19 19 18 17 17 17 18 19 19 18 16 14 14 15 16 15 13 12 13 13 13 11 9 10 10 10 9 9 11 12 12 13 13 14 13 13 13 13 15 17 17 16 15 14 14 16 17 18 20 22 21 21 23 23 23 24 25 26 26 24 24 27 28 29 29 26 22 22 25 26 25 26 27 28 29 32 32 31 30 31 31 30
20 19 19 19 18 17 16 17 18 18 19 19 19 18 17 15 14 14 13 12 12 12 13 14 12 11 11 11 10 9 9 9 10 10 11 11 11 11 10 11 12 13 15 15 14 14 15 15 15 16 17 18 20 20 20 21 22 22 23 23 25 27 26 24 25 27 28 29 30 26 21 21 22 23 24 25 26 28 29 30 29 29 29 28 27
20 19 19 18 17 17 17 18 18 18 17 18 19 19 20 18 16 14 13 12 11 12 12 12 12 12 12 12 11 10 10 9 8 9 9 9 9 9 10 11 12 12 13 15 14 14 15 15 15 16 16 17 19 19 19 20 21 21 22 23 23 26 28 26 24 26 27 28 29 30 27 22 21 22 23 23 23 26 28 28 28 28 27 27 26
19 19 18 18 18 18 19 19 19 19 18 17 17 18 19 19 18 16 14 13 12 12 11 11 11 11 11 10 10 10 9 9 8 8 7 7 8 9 10 10 11 12 13 13 13 13 14 14 14 15 15 16 17 18 18 19 20 20 20 22 22 23 26 27 24 24 26 26 26 29 31 28 24 23 24 24 23 22 24 26 27 26 26 26 26
19 20 19 19 20 20 20 20 20 19 19 18 16 16 16 16 16 16 15 14 13 12 12 11 11 11 10 9 9 9 9 8 8 7 7 7 8 10 11 10 9 10 11 11 10 12 14 14 13 15 15 15 16 17 17 17 19 19 19 20 21 21 23 26 26 23 24 24 24 24 28 30 28 25 25 26 25 24 22 22 23 25 24 23 24
20 20 20 19 20 20 20 20 19 19 19 18 17 16 15 15 16 17 16 14 13 12 12 11 11 12 11 11 10 10 10 9 8 7 7 7 8 11 12 11 9 9 10 10 10 10 13 14 13 14 15 15 15 16 17 16 17 18 17 18 20 20 20 23 27 25 23 23 24 22 23 25 28 27 26 25 25 26 25 23 22 23 23 21 20
20 20 19 19 20 19 19 19 19 19 19 18 18 17 16 16 17 16 15 14 12 11 11 12 12 13 12 12 11 11 11 11 10 9 8 8 9 10 11 11 11 10 10 10 10 10 11 13 13 13 14 14 14 15 16 16 16 18 17 16 18 20 19 21 24 25 23 23 24 23 21 21 23 25 26 26 24 24 25 25 23 21 21 21 20
20 20 19 19 19 18 18 18 18 18 18 18 18 17 17 17 17 15 14 14 12 11 11 10 9 9 9 8 8 7 7 7 8 8 8 8 9 9 9 10 10 10 9 10 10 10 10 10 12 12 12 13 14 14 15 15 15 16 17 16 16 18 18 19 20 22 22 22 23 23 22 22 21 20 21 23 24 23 22 22 22 20 20 20 20
21 20 18 18 18 17 16 16 15 16 16 16 16 15 14 14 13 12 12 11 11 12 14 11 7 6 5 4 4 3 4 4 3 3 5 7 9 9 8 7 7 8 9 9 9 10 9 9 10 11 11 12 13 13 13 14 14 15 16 16 15 16 16 17 17 18 20 21 21 21 21 21 21 20 19 18 19 21 20 19 18 18 17 17 18
20 19 18 18 18 17 15 16 17 16 15 14 13 12 12 12 11 9 9 7 6 8 11 12 11 10 8 5 2 2 4 6 6 5 2 4 8 9 7 5 6 7 8 8 8 9 9 9 9 10 10 11 12 12 12 13 13 14 15 15 15 15 15 15 16 16 17 18 19 19 19 19 19 20 20 18 17 17 17 17 16 15 14 14 14
18 18 18 19 17 16 17 19 18 16 13 13 12 11 11 10 9 8 8 8 6 5 5 7 9 9 8 5 2 1 4 7 9 9 4 1 5 7 5 5 5 6 6 7 7 7 8 9 9 9 9 10 10 11 12 12 12 13 13 14 15 15 15 15 16 15 15 16 17 18 18 18 16 16 18 19 18 17 16 15 14 13 11 10 10
18 19 20 18 16 17 18 18 16 13 12 12 12 11 10 10 9 8 9 9 6 3 2 3 3 6 9 7 3 3 3 5 8 9 5 1 2 4 4 4 5 5 5 6 6 6 7 8 8 8 8 8 9 10 10 10 11 12 12 12 13 14 14 14 15 15 15 14 15 17 17 17 15 14 15 16 16 17 17 16 14 13 12 10 8
19 20 19 17 17 19 19 16 13 12 12 12 12 11 10 9 8 8 7 7 5 4 3 3 2 5 9 7 1 4 5 4 6 9 8 5 4 4 3 2 4 5 4 4 5 5 6 6 7 7 8 8 8 9 9 9 10 11 12 11 12 13 13 12 13 15 14 13 12 14 15 16 14 13 13 14 13 13 14 16 15 13 12 11 10
20 20 17 17 18 18 17 14 12 11 12 12 12 12 10 8 7 7 6 6 5 4 3 3 3 5 7 7 4 3 6 4 5 7 8 6 5 5 3 4 5 5 4 3 5 5 5 5 6 7 8 8 8 8 9 9 10 10 10 11 11 11 11 11 11 13 13 12 11 12 13 13 14 13 12 12 12 11 11 13 14 13 12 12 11
21 19 17 17 18 16 14 13 12 11 12 12 11 11 10 9 8 6 6 5 4 4 3 4 4 5 8 7 4 4 7 6 6 8 9 7 5 5 4 6 7 6 4 4 5 5 5 5 6 7 8 8 8 9 10 10 10 10 10 10 10 10 10 10 10 11 12 11 11 13 13 13 12 12 11 11 11 10 9 10 11 11 11 11 10
21 18 17 17 17 15 13 13 13 12 12 11 9 7 8 8 7 6 7 8 8 7 7 6 6 6 7 8 6 6 6 6 8 9 8 7 6 6 6 7 8 7 6 6 6 6 7 7 7 8 9 9 9 9 10 10 11 11 11 10 10 10 10 9 9 10 11 11 11 12 13 13 11 11 11 10 11 11 10 9 9 9 9 9 9
19 17 17 17 16 14 12 12 13 12 11 10 8 6 6 7 6 5 6 8 8 8 8 8 7 7 7 8 9 10 9 9 9 9 7 7 7 7 7 8 8 8 8 7 7 7 8 9 9 10 10 11 11 12 12 11 11 11 12 13 12 11 10 9 10 9 9 10 11 11 12 11 11 12 12 10 10 11 10 9 9 9 9 9 9
17 17 17 15 15 15 13 12 13 13 11 10 9 8 8 8 8 7 7 7 7 7 6 6 6 7 8 9 11 11 10 10 9 9 8 8 8 8 8 8 8 7 7 6 6 8 9 10 11 13 14 15 16 16 15 14 13 12 12 13 14 13 12 11 11 11 9 8 9 10 11 11 10 11 12 11 10 11 10 9 10 10 9 9 9
17 17 16 13 14 14 13 12 12 12 11 11 11 10 10 11 12 12 11 10 9 8 7 6 7 8 9 10 10 10 10 9 9 9 10 11 11 11 11 11 10 10 9 9 9 10 11 11 12 14 14 16 16 17 17 17 16 15 13 12 13 14 15 14 14 13 11 11 12 12 13 13 11 11 12 13 12 12 12 11 11 11 10 9 10
17 17 16 14 13 14 13 12 13 12 11 11 11 11 11 11 11 10 10 10 10 10 9 10 11 11 12 12 11 10 10 9 9 10 10 11 11 12 12 12 11 11 11 10 10 10 10 11 13 14 15 16 18 19 20 20 19 18 16 14 14 15 16 15 15 15 14 15 16 17 16 15 12 12 13 13 12 13 13 12 12 13 12 11 11
16 17 17 14 13 13 13 12 12 12 11 10 10 10 10 9 9 8 8 8 9 9 10 11 11 11 11 10 9 9 9 9 10 11 11 12 13 14 14 13 13 13 13 13 13 14 13 12 13 14 15 16 18 19 20 21 20 20 20 19 17 17 17 18 18 18 18 19 19 19 19 17 15 14 15 15 15 15 15 14 15 15 14 12 13
13 14 15 14 11 12 13 12 12 12 12 12 11 11 11 11 10 10 10 10 10 10 10 11 11 11 10 10 11 11 11 11 12 12 12 12 12 12 12 12 12 12 13 14 15 15 15 14 14 15 15 16 18 19 20 21 21 22 22 22 21 20 20 21 22 23 23 22 22 21 21 20 19 19 19 18 17 17 16 16 17 17 15 15 16
13 11 13 13 11 10 11 11 11 10 11 11 11 11 11 12 12 12 12 12 12 12 12 12 11 11 11 11 11 11 11 12 13 12 12 13 13 14 15 15 15 15 16 17 18 19 19 19 19 18 17 17 18 19 20 21 22 22 23 24 23 22 22 23 24 24 24 24 23 23 22 22 22 22 22 21 20 20 19 19 19 19 19 18 18
Wind_Direction
119 119 121 123 122 120 119 121 122 122 121 122 123 120 116 117 114 108 101 91 81 72 65 59 53 50 48 46 43 40 37 34 31 29 27 24 22 18 13 9 7 4 0 358 357 355 352 352 353 354 355 351 346 344 343 342 340 336 334 333 327 328 331 327 317 305 308 314 315 311 309 307 302 298 294 290 289 286 281 274 263 257 256 253 248
124 124 125 125 120 115 115 116 115 114 116 117 118 117 113 112 109 104 98 86 78 71 64 60 57 55 53 50 46 42 40 35 33 32 29 26 25 21 15 12 10 8 7 5 2 1 0 360 1 1 0 356 351 349 346 344 342 337 334 333 328 327 329 325 319 313 312 317 321 317 314 313 308 305 301 292 291 292 287 277 265 260 263 261 250
126 125 126 125 122 118 116 116 113 111 114 116 117 115 109 106 102 96 92 85 78 72 66 63 61 58 55 51 46 41 38 35 34 34 31 27 24 20 16 14 13 11 11 9 4 3 3 6 9 7 2 358 353 351 349 346 344 341 337 335 330 328 330 329 324 319 314 316 318 317 315 314 311 309 308 304 297 290 281 276 270 262 262 264 256
129 127 125 124 122 120 118 118 119 118 118 118 116 111 104 100 97 92 89 84 79 75 71 66 62 58 52 47 43 38 34 35 37 35 33 29 23 20 19 17 16 14 10 6 4 3 5 11 14 10 5 2 357 355 353 349 346 343 338 335 333 332 333 333 329 324 321 318 318 320 320 316 315 317 316 312 307 302 290 281 280 276 266 262 257
132 131 129 126 124 121 119 120 122 120 118 116 112 108 103 97 94 90 87 84 81 77 72 66 59 54 49 46 42 35 31 33 35 33 31 30 25 23 23 19 17 16 11 9 10 9 9 13 15 15 12 7 2 358 356 351 347 345 342 338 332 332 335 334 332 331 328 324 321 322 325 325 327 328 330 333 334 331 322 306 298 291 277 267 261
136 134 132 129 126 123 121 122 121 118 115 112 108 105 101 97 94 90 87 86 84 79 74 65 57 52 48 46 40 33 33 36 38 37 34 34 32 29 26 23 21 20 16 18 19 14 12 15 18 19 16 9 3 357 354 352 350 348 347 341 332 331 336 337 337 336 333 328 325 325 329 333 334 333 340 353 358 353 345 335 325 316 304 289 274
138 134 130 127 124 122 121 120 118 116 113 110 108 105 102 98 94 91 87 84 81 77 73 65 57 52 48 44 38 35 40 44 47 48 45 44 43 35 28 26 26 26 23 24 23 16 13 15 20 20 15 8 1 354 351 352 351 350 348 343 336 334 340 343 342 340 337 333 331 331 333 334 334 337 344 350 352 352 351 344 332 327 326 316 295
136 129 125 123 120 119 119 117 116 115 112 110 107 104 102 98 95 91 84 79 75 73 71 65 59 54 48 44 42 45 47 46 45 47 47 47 47 40 34 31 30 29 28 26 23 19 14 11 14 13 8 3 358 352 351 352 351 349 347 346 341 337 344 349 347 344 341 338 336 336 336 335 337 342 345 349 349 345 345 341 328 322 323 320 312
130 123 119 119 118 118 118 117 116 113 111 109 105 103 101 97 94 89 81 77 75 72 70 66 60 55 50 46 45 47 48 44 40 39 40 44 47 44 40 36 32 29 28 26 22 18 13 9 7 6 3 359 355 353 356 357 354 351 348 345 340 339 350 353 353 354 349 342 340 339 338 338 342 342 341 346 347 338 333 331 323 320 320 317 315
127 122 120 118 119 119 119 118 116 112 110 108 105 103 99 95 91 86 81 78 75 73 71 66 61 55 51 48 46 43 42 43 43 39 39 44 50 51 46 39 36 31 26 24 21 16 13 10 6 4 2 359 355 356 1 3 1 0 358 351 340 341 357 360 359 0 356 347 343 342 340 338 339 339 335 334 335 331 328 326 321 321 322 319 315
125 123 122 121 120 119 118 117 114 112 111 108 106 104 100 95 90 85 82 78 75 74 72 68 64 57 52 50 45 39 37 40 43 44 46 50 53 54 48 41 37 31 26 26 21 15 13 11 9 7 4 360 357 360 4 8 10 10 6 2 353 347 2 10 4 357 353 348 341 341 341 335 335 336 332 330 329 326 324 322 319 319 319 318 312
126 125 124 122 120 118 118 117 114 112 109 106 104 103 99 95 90 86 84 81 78 77 73 68 64 57 53 49 40 34 35 38 40 44 50 55 56 55 49 42 37 30 28 30 24 17 14 12 12 12 7 2 2 4 7 12 16 12 6 5 3 355 0 11 5 357 353 346 336 340 344 339 337 338 335 333 330 325 324 321 317 314 308 302 299
132 129 124 122 119 118 118 116 112 108 106 106 105 102 100 98 95 93 92 87 82 79 74 68 64 58 53 47 37 33 35 37 38 44 52 57 59 57 50 45 40 33 33 34 27 21 19 16 17 17 13 9 9 9 11 16 17 12 6 7 5 359 360 6 4 1 360 351 339 341 347 344 340 340 340 340 336 331 328 322 316 312 303 298 297
135 126 121 122 120 120 119 115 112 111 111 111 109 106 104 104 103 101 98 93 89 86 81 73 67 60 54 47 39 36 38 37 38 45 52 58 63 61 51 47 45 39 39 40 33 28 27 25 22 19 15 14 14 13 14 16 16 12 9 10 8 3 3 5 3 0 1 359 351 344 347 350 347 343 343 345 342 336 329 322 317 311 306 305 301
131 124 124 125 122 121 119 114 113 112 112 112 108 105 105 105 103 99 95 92 89 88 85 78 72 63 55 49 42 40 41 43 45 44 43 52 67 66 54 51 51 45 43 43 40 37 34 29 24 18 13 12 14 15 15 14 14 13 12 13 11 7 5 7 6 2 0 3 1 352 351 353 351 347 346 345 342 338 331 325 319 314 313 312 307
131 129 126 123 121 121 118 115 114 115 114 112 110 109 107 101 96 94 92 89 86 84 80 77 74 67 58 51 46 44 44 46 49 44 40 52 70 68 56 54 54 48 46 45 43 39 33 27 22 17 11 9 11 13 14 14 14 15 16 15 12 9 6 4 4 4 3 5 5 1 356 354 350 348 347 345 344 342 338 334 329 327 324 317 313
137 131 124 123 125 123 120 120 120 119 118 117 117 115 110 102 98 99 97 94 91 87 81 77 75 71 63 55 49 48 47 48 50 47 47 59 71 67 56 53 50 47 48 46 39 32 27 23 19 14 9 9 10 12 13 13 12 14 18 20 18 16 13 7 2 2 4 6 6 5 2 360 356 353 350 348 350 350 345 341 338 337 331 318 315
137 128 124 126 126 123 125 126 124 123 122 121 118 113 108 106 106 106 105 102 100 95 89 85 80 74 69 61 53 50 49 49 51 53 55 59 61 56 51 48 44 43 45 43 37 29 22 17 14 11 8 8 10 13 14 13 9 9 14 20 22 21 19 15 11 8 6 8 8 7 7 6 2 359 356 354 357 358 352 344 342 340 333 322 320
132 128 125 124 124 124 127 127 125 124 123 119 113 110 109 111 112 112 112 111 109 105 100 95 88 79 73 68 60 53 51 50 50 52 57 59 58 54 46 39 37 36 37 37 34 28 21 12 8 9 9 8 11 15 15 13 10 8 6 11 18 21 19 18 18 15 10 8 8 7 6 7 6 4 2 359 0 3 360 354 352 349 340 331 327
125 125 124 124 124 123 123 123 123 123 122 118 115 116 118 119 119 117 114 112 113 114 111 106 98 88 76 70 66 58 52 50 50 50 52 58 63 59 46 36 33 34 35 35 30 24 17 9 6 9 11 10 11 16 16 14 13 12 7 5 11 16 16 17 20 20 15 11 10 7 5 7 8 8 6 4 5 7 7 6 6 3 355 345 339
119 119 119 121 123 121 119 117 114 114 116 116 115 116 116 114 112 111 110 114 118 119 116 111 109 105 85 69 65 59 50 46 47 48 49 51 56 58 48 38 34 35 36 33 28 21 13 6 4 8 11 11 11 16 17 14 14 17 18 19 20 17 12 12 17 21 20 16 14 12 10 9 9 10 10 9 9 10 11 12 14 16 12 4 358
115 115 115 116 118 118 116 114 112 113 115 116 115 114 112 110 108 110 114 119 121 120 116 111 109 111 103 72 61 57 48 41 39 42 46 46 46 48 47 41 37 33 28 23 21 16 8 4 4 6 9 11 13 17 17 15 16 18 21 28 30 25 17 12 14 19 21 19 17 16 16 13 12 12 12 13 14 15 17 17 19 25 26 24 23
118 119 119 118 119 120 119 118 119 120 119 118 117 116 117 118 120 125 128 127 124 120 115 111 105 101 96 83 70 60 48 39 33 31 35 39 40 39 38 37 33 25 18 13 8 1 359 2 6 7 7 9 14 16 16 17 19 20 21 24 28 27 22 18 17 19 21 20 19 19 19 18 17 16 15 17 18 18 21 22 22 28 34 37 41
127 128 128 127 127 127 125 124 124 123 121 121 120 122 127 131 135 140 140 136 133 127 119 115 110 99 91 84 75 65 54 44 35 31 28 30 34 34 31 30 27 22 19 10 357 352 355 2 9 10 7 10 17 18 17 19 20 21 23 22 22 25 23 19 18 20 21 21 19 19 21 23 22 21 20 21 24 24 27 29 29 33 39 43 48
135 135 134 132 131 129 126 124 122 121 121 121 122 127 133 134 135 137 136 130 126 122 117 114 109 101 94 87 76 65 57 48 40 39 39 38 37 34 28 26 25 24 19 10 1 357 360 5 12 15 11 12 19 20 19 21 21 21 24 23 21 25 24 19 17 17 18 21 21 19 21 24 25 25 26 28 30 29 29 32 35 38 43 47 51
139 137 135 133 132 129 125 123 121 121 122 124 128 129 126 122 119 118 120 120 119 116 114 114 110 104 100 94 82 70 59 50 44 44 49 50 44 36 30 30 33 27 15 9 7 6 7 10 15 17 14 15 20 20 19 21 21 21 23 23 23 26 26 22 18 15 13 18 23 22 22 23 25 25 27 31 32 32 32 32 34 37 41 46 52
140 137 135 134 131 127 125 123 120 117 116 122 126 115 101 99 97 88 85 93 102 102 97 97 99 100 101 99 91 76 60 51 49 46 46 48 47 41 37 36 35 26 12 7 8 9 11 15 18 19 18 17 19 22 20 20 21 22 23 23 23 25 28 26 22 17 14 15 23 28 28 28 29 28 27 31 33 34 36 38 38 38 41 45 51
139 137 135 132 128 127 127 120 109 100 97 100 102 94 89 94 94 85 75 73 83 90 82 70 67 76 85 88 88 80 61 49 48 45 42 44 47 48 45 37 28 19 9 3 6 11 17 18 18 21 22 18 17 19 21 20 21 22 23 23 21 22 27 28 25 21 18 16 20 30 33 34 36 34 31 32 34 35 38 42 43 43 44 45 48
139 136 133 130 128 131 128 114 105 102 99 96 94 94 98 103 100 92 83 77 85 97 94 81 74 82 89 87 86 84 68 52 49 49 48 50 50 46 40 28 17 13 8 3 5 13 18 20 20 23 24 19 15 15 18 18 20 22 23 24 21 19 22 28 27 22 20 17 17 24 34 36 37 36 34 34 35 36 39 43 45 46 47 47 46
137 133 133 133 134 134 126 116 114 113 108 104 102 100 102 105 105 101 95 92 99 109 107 99 95 97 97 90 85 84 75 64 62 65 67 67 59 48 40 27 16 11 9 9 13 16 16 19 23 24 25 21 15 13 16 17 17 19 21 22 23 19 16 21 28 26 22 20 18 18 26 34 36 35 35 35 36 37 40 44 48 48 48 49 48
136 136 137 137 136 132 127 125 125 122 118 116 112 104 99 98 100 102 103 105 111 113 111 109 108 102 94 84 77 76 73 70 73 76 73 67 56 44 35 29 26 20 10 6 11 16 16 18 23 23 25 25 18 13 16 19 16 16 19 20 22 21 15 13 21 27 25 24 23 21 20 24 31 33 33 34 37 40 43 46 50 52 52 52 52
140 139 139 138 135 131 130 130 131 129 127 125 120 112 106 101 98 101 104 106 108 108 108 108 104 98 93 84 76 73 72 71 78 80 69 53 38 27 18 16 23 25 16 6 6 14 16 18 22 21 20 24 21 14 15 20 17 15 19 20 19 21 18 12 14 23 25 25 26 26 23 22 26 33 35 34 33 37 43 48 52 55 56 57 57
142 140 141 140 137 134 135 135 135 136 136 135 130 124 120 116 112 110 109 107 106 104 102 100 97 94 93 89 81 76 73 70 72 73 60 39 21 8 1 1 10 20 17 9 9 18 19 16 20 23 18 18 20 17 15 18 18 15 21 24 19 18 19 15 13 19 24 23 25 30 30 26 26 29 34 37 36 34 38 46 53 56 57 58 59
141 142 145 143 139 139 141 142 143 144 144 143 141 137 135 134 131 127 123 119 115 111 106 101 97 93 90 86 81 76 72 70 69 64 53 35 14 360 356 4 19 27 22 14 11 20 22 15 15 23 20 14 17 19 15 17 18 15 17 24 22 18 17 16 15 17 21 20 21 27 32 32 31 29 29 34 39 39 40 44 52 59 61 61 62
143 145 147 145 144 147 148 149 151 152 151 148 145 142 144 148 148 145 143 141 136 131 124 113 103 97 91 86 82 77 72 72 69 61 49 32 14 2 1 11 23 27 28 23 14 16 25 20 13 18 20 15 14 18 17 17 19 15 12 18 22 19 18 18 16 16 19 20 19 21 27 32 35 35 32 31 34 39 45 50 56 62 65 64 61
145 148 149 149 149 151 153 154 157 157 154 150 148 151 159 166 166 162 159 156 153 152 150 137 120 114 107 95 86 75 66 66 64 57 49 32 11 358 356 5 15 19 23 24 15 10 20 24 15 13 18 16 13 15 16 17 18 15 11 12 15 17 18 19 17 16 19 20 18 20 24 27 28 32 37 36 34 36 43 52 61 66 67 67 63
148 151 153 154 152 152 153 155 154 151 148 146 150 157 163 166 166 164 161 162 164 163 163 163 164 166 164 142 113 72 28 16 12 20 31 22 5 352 345 354 10 15 13 14 13 8 11 20 18 14 13 13 11 12 14 15 15 14 12 11 11 13 16 18 17 17 20 20 18 18 22 25 24 24 27 35 39 41 42 48 57 65 69 69 67
152 155 155 153 152 150 144 140 140 141 141 143 149 153 153 156 160 155 143 144 161 167 167 177 192 205 211 205 163 32 337 311 298 293 315 10 3 354 353 5 15 13 7 6 9 6 5 11 18 16 12 11 9 8 10 11 10 10 12 11 10 11 14 15 15 16 18 20 19 17 18 22 24 22 20 22 28 37 43 46 49 57 69 76 76
155 154 151 150 150 144 135 133 137 142 148 152 152 150 150 152 149 140 138 151 175 192 183 187 197 198 192 180 141 357 300 289 290 285 268 336 360 349 351 5 8 4 1 360 2 4 3 6 11 13 12 10 5 3 5 6 3 3 7 9 9 11 12 13 12 11 12 17 19 15 15 18 21 22 21 20 18 20 29 39 43 46 57 73 87
149 148 148 149 145 138 137 142 149 155 159 155 146 145 152 154 151 155 163 167 176 202 224 219 201 172 162 154 111 22 326 301 302 298 282 258 330 324 327 348 351 349 352 354 357 1 360 359 1 3 5 5 0 358 359 359 357 359 2 3 5 9 11 10 8 7 8 11 14 13 11 11 14 20 23 22 18 14 16 23 34 38 38 43 58
147 147 149 146 139 139 146 156 162 162 156 147 144 153 165 165 165 173 173 162 164 192 229 252 226 174 174 184 205 359 345 310 294 297 301 302 292 289 297 322 321 319 327 337 343 348 348 348 349 349 350 352 350 348 352 354 352 354 357 355 357 3 7 5 4 4 4 3 3 5 4 3 8 19 25 22 18 15 14 16 21 27 26 24 24
148 147 147 142 140 148 158 164 163 158 151 149 159 170 172 168 172 177 168 162 177 200 231 263 245 193 193 207 229 332 340 314 269 272 283 287 283 282 289 299 298 292 289 309 324 325 324 330 337 338 339 342 340 337 340 343 341 343 349 350 348 352 356 356 358 0 0 358 358 1 2 2 7 15 19 17 15 16 17 15 12 13 18 18 13
150 150 149 145 149 159 166 162 159 158 156 162 173 175 168 172 184 183 171 178 202 220 243 263 247 207 198 204 223 311 327 306 262 252 255 259 273 289 295 295 294 286 276 293 308 305 302 307 315 316 318 324 327 328 328 329 328 330 334 337 338 340 342 343 348 352 353 354 359 5 4 2 2 4 6 7 10 13 17 15 8 5 9 10 5
153 155 154 154 159 167 167 161 163 167 168 172 177 168 164 180 196 191 187 197 209 214 226 247 252 223 202 205 230 275 291 271 252 253 261 272 285 290 285 282 282 276 273 281 288 289 290 293 296 302 309 314 315 316 316 316 317 318 318 318 320 323 326 327 329 336 343 346 350 358 359 356 354 356 355 356 0 4 5 4 359 355 357 359 358
156 157 159 161 164 170 170 166 167 169 170 173 174 168 176 199 218 221 214 216 220 220 224 238 250 241 223 222 237 253 260 257 255 265 279 283 279 276 277 280 278 275 275 278 279 282 285 285 284 289 296 299 299 301 302 302 305 307 307 308 305 302 304 310 311 314 328 337 339 342 343 342 345 352 351 348 352 357 355 349 344 341 343 347 346
159 159 163 165 164 169 174 172 167 169 172 177 184 190 193 203 221 233 230 230 238 240 239 245 254 255 250 247 247 247 248 251 258 268 272 270 266 266 270 274 276 277 279 281 285 287 287 287 287 287 288 292 297 301 302 302 301 298 297 300 302 298 295 293 292 294 308 325 328 326 325 326 334 343 342 338 340 341 336 333 336 337 334 334 333
160 161 168 170 166 170 179 176 170 175 180 183 192 206 209 208 216 223 223 223 230 238 248 261 268 268 266 264 261 256 253 257 263 265 264 265 266 264 263 262 262 262 263 268 275 281 282 285 289 291 291 294 299 302 303 304 304 301 295 291 293 296 297 291 282 280 290 303 306 307 311 314 317 321 322 323 326 326 322 323 326 326 323 321 319
164 164 172 178 173 174 182 181 176 183 193 193 196 207 215 218 223 226 224 224 226 230 239 248 252 253 255 257 257 256 254 256 260 262 263 267 269 268 268 268 262 254 251 253 260 270 279 286 290 290 289 289 291 293 296 299 301 301 299 292 285 286 289 291 288 285 288 295 299 303 306 308 308 310 312 312 311 311 313 311 309 310 312 312 309
171 168 174 184 182 178 183 184 180 184 198 204 204 207 214 225 236 240 241 244 243 241 243 246 248 252 258 263 268 270 267 266 267 265 264 267 270 270 271 271 267 261 256 254 255 260 266 274 281 284 283 283 285 287 288 291 293 295 296 295 292 286 281 282 285 286 286 289 294 298 299 299 296 294 294 296 298 301 302 300 301 304 304 299 296
178 172 173 183 187 183 183 187 188 191 198 204 210 213 214 218 226 233 239 244 247 249 252 253 256 261 266 268 271 273 272 270 270 268 266 269 273 274 272 272 272 270 267 264 263 263 263 266 273 278 278 278 281 282 282 284 287 289 291 292 291 288 283 280 280 281 282 285 288 290 291 291 289 287 286 287 289 292 292 291 294 298 296 290 288
183 184 178 181 188 191 189 188 193 200 203 204 210 216 217 217 221 226 230 233 238 244 250 254 258 262 266 270 273 278 280 279 278 275 272 273 275 276 279 282 285 284 282 280 278 274 271 272 276 277 275 275 277 278 278 279 282 285 289 291 290 288 286 285 283 283 284 285 286 286 287 286 285 283 282 281 280 280 282 283 285 287 288 289 290
Height
796 799 801 804 806 809 812 815 817 820 821 823 824 825 826 827 828 828 828 828 828 828 827 827 826 825 824 824 823 822 822 822 822 821 821 821 820 820 820 820 819 819 818 818 817 816 815 814 813 812 810 809 807 805 803 802 800 798 796 794 792 791 789 787 784 779 775 774 773 771 769 769 767 766 765 762 760 760 759 759 758 759 759 758 758
798 800 802 805 807 810 813 815 818 820 821 823 825 826 827 827 827 828 828 828 828 827 827 827 826 825 825 824 823 823 822 822 822 822 821 821 821 821 821 820 820 819 819 819 818 817 816 815 814 813 812 810 808 806 804 802 801 798 797 795 793 791 790 788 784 780 775 772 771 769 768 767 766 764 763 761 758 756 755 755 755 755 755 755 754
799 801 803 806 808 811 813 816 818 820 822 824 825 826 827 827 828 828 828 828 828 827 827 827 826 826 825 825 824 823 823 822 822 822 822 822 822 822 822 821 821 821 820 820 819 818 817 816 815 814 813 811 809 808 806 803 801 799 797 796 794 791 790 788 785 781 777 772 770 769 767 765 764 762 760 759 757 755 754 754 754 753 752 752 751
801 803 805 807 810 812 814 817 819 821 823 824 825 826 827 827 828 828 828 828 828 828 827 827 827 826 825 825 824 824 824 823 822 822 822 823 823 823 823 823 822 822 821 821 820 819 818 817 816 815 814 812 810 808 807 804 803 801 798 796 794 792 790 788 786 783 779 774 770 769 767 764 762 760 759 757 756 755 754 753 752 751 750 749 748
803 805 807 809 811 813 815 817 819 821 823 824 825 826 826 827 828 828 828 828 828 828 827 827 827 827 826 826 826 825 824 823 822 822 823 824 823 824 824 824 823 823 822 821 821 820 819 818 817 816 815 813 811 809 808 806 803 801 799 796 794 792 790 788 786 783 780 776 772 768 767 764 762 760 759 757 755 753 751 750 750 749 748 746 745
805 807 809 810 812 813 815 817 819 821 822 823 824 825 826 827 828 828 828 828 828 827 827 828 828 828 828 828 827 826 825 824 823 823 824 824 824 825 825 825 824 824 823 822 822 821 820 819 818 817 816 814 813 811 808 806 804 801 799 797 795 792 790 788 786 784 781 778 774 770 767 765 763 761 760 758 756 754 751 748 747 748 747 745 743
807 807 809 811 812 814 816 817 819 820 822 823 824 825 826 827 828 828 828 828 828 827 828 829 829 829 829 829 828 827 826 826 825 825 825 825 825 825 826 825 825 824 824 823 823 822 821 821 820 818 817 816 814 812 809 806 803 801 799 797 795 793 791 789 787 785 782 779 776 773 769 767 765 763 761 759 758 756 754 750 746 744 744 743 741
809 808 809 811 813 814 816 817 818 820 822 823 824 825 827 828 828 828 828 828 828 828 829 830 830 831 831 830 830 829 828 827 827 826 826 826 825 826 826 827 826 826 825 825 824 824 823 822 821 820 818 817 815 813 809 806 803 801 799 797 795 793 791 789 787 786 784 781 778 775 772 769 766 764 762 760 759 757 756 754 750 746 743 740 738
810 809 809 811 812 814 816 818 819 820 822 823 825 826 827 828 828 828 828 828 829 829 830 831 832 832 832 832 831 830 830 829 828 828 827 827 826 826 827 827 827 827 827 826 826 825 824 823 822 821 819 818 816 812 809 806 804 801 799 796 795 793 792 790 788 786 785 783 780 777 775 772 770 767 765 763 763 760 758 757 753 749 745 739 735
810 810 811 811 812 814 816 818 819 820 821 823 825 826 827 827 828 828 829 829 830 830 831 832 833 834 834 833 833 832 831 830 830 830 829 828 828 828 828 828 828 828 828 828 827 826 825 824 823 822 820 817 815 811 808 805 803 801 799 796 795 793 792 791 789 787 785 783 781 779 776 774 772 771 769 766 765 763 760 757 753 749 746 739 732
809 811 812 812 813 814 816 817 819 820 821 823 825 826 827 827 828 829 829 830 831 832 833 834 835 835 835 834 834 833 832 832 831 831 830 830 829 829 829 829 829 830 829 829 829 827 826 825 823 822 820 817 814 810 807 805 802 801 799 797 795 794 793 792 790 788 786 784 782 780 778 775 773 772 770 767 765 762 759 757 753 750 746 742 735
810 812 812 812 812 814 816 817 818 819 821 823 824 825 826 827 829 830 831 832 833 833 835 835 836 836 836 836 835 834 834 833 833 832 831 831 831 830 831 831 831 831 831 830 830 829 827 826 824 823 821 818 815 811 807 805 803 801 799 798 796 795 794 793 791 789 786 784 782 780 778 776 773 772 770 767 764 761 758 756 753 750 746 743 738
810 812 812 812 812 814 815 816 817 819 821 823 824 826 827 828 830 831 832 833 834 835 836 836 837 837 837 837 836 835 834 834 833 833 832 832 832 832 832 832 832 832 832 831 831 830 829 827 825 824 821 819 816 812 809 806 804 802 801 799 797 796 795 794 792 790 788 785 782 780 779 776 774 772 770 767 764 760 757 754 751 748 745 741 737
810 811 811 811 812 814 815 816 818 820 821 823 825 826 828 829 830 832 833 834 835 836 837 838 838 839 838 838 837 836 835 835 834 834 833 833 833 833 833 833 833 833 832 832 832 831 830 828 826 825 822 820 816 813 810 807 805 804 802 801 799 797 796 794 792 790 788 786 783 781 779 777 774 772 769 767 764 760 756 752 748 745 742 738 734
809 810 811 812 813 814 815 816 818 820 822 824 825 827 828 830 831 832 833 835 836 837 838 839 840 840 840 839 839 837 836 836 835 835 834 834 834 834 834 834 834 834 833 833 832 832 830 829 827 826 823 821 818 815 812 809 807 806 804 802 801 799 797 795 793 791 789 786 784 781 779 777 774 771 769 766 763 760 756 751 747 743 739 734 729
808 810 811 812 813 814 816 818 820 821 823 825 827 829 830 831 832 834 835 836 837 838 840 841 841 841 841 841 840 838 837 836 836 836 835 835 835 835 835 835 834 834 834 833 833 832 831 830 828 827 824 822 819 817 814 812 809 807 805 803 802 800 798 797 794 792 790 787 784 781 779 776 773 770 768 765 762 758 754 749 746 742 738 732 727
809 810 812 813 814 816 817 819 821 823 825 827 828 830 831 833 834 835 837 838 839 840 841 842 843 843 843 842 841 839 839 838 837 837 837 836 836 836 836 836 835 835 835 834 833 832 832 831 829 827 825 823 820 818 816 813 811 809 807 805 803 801 799 797 795 792 790 787 784 781 778 775 772 769 767 764 760 756 752 748 745 741 737 732 727
810 811 812 814 816 817 819 821 823 825 826 828 830 831 832 834 835 837 838 839 841 842 843 843 844 844 844 843 842 841 840 840 839 839 838 838 837 837 837 837 836 836 835 835 835 834 833 832 830 829 826 824 821 819 816 814 812 811 809 806 804 801 800 798 795 792 790 787 783 780 777 774 771 768 765 763 759 756 752 749 745 741 737 733 729
811 812 814 816 818 820 821 823 824 826 828 829 831 832 834 835 837 838 840 841 842 843 844 845 845 845 845 845 844 843 843 842 842 841 840 839 838 838 838 837 837 837 837 836 836 835 834 833 831 829 827 825 823 820 817 815 813 811 810 807 804 802 801 799 796 793 790 786 783 780 777 774 771 768 765 762 759 755 752 749 745 742 738 734 730
812 814 816 818 820 822 823 825 826 827 829 830 832 834 835 836 838 839 841 842 844 845 845 845 845 845 846 845 845 845 845 845 844 843 842 841 840 839 839 838 838 838 838 837 837 836 835 834 832 830 828 826 824 821 818 816 814 812 811 808 806 804 802 800 798 795 792 788 785 782 779 775 772 768 765 762 758 755 752 749 746 742 738 734 730
814 816 818 819 822 823 824 826 827 829 830 832 833 835 836 837 839 840 842 844 845 845 846 846 846 846 846 846 846 847 847 847 846 845 844 843 842 841 841 840 839 839 839 838 838 837 836 835 833 831 829 827 825 823 820 818 815 813 811 809 807 805 804 801 799 796 793 790 787 784 780 776 772 768 765 762 759 756 753 751 747 743 739 736 731
816 818 820 821 823 825 826 828 829 831 832 833 834 836 837 839 840 842 844 845 845 846 846 846 846 846 846 846 847 847 848 848 847 846 846 845 844 843 842 841 840 840 840 840 839 838 837 836 834 832 829 827 826 824 822 820 817 815 813 811 809 807 805 803 800 798 795 792 788 785 781 777 773 770 767 764 761 758 755 752 749 745 741 738 734
818 819 821 823 825 827 828 829 831 833 834 835 836 837 839 840 842 843 845 845 846 846 846 846 847 847 847 847 848 848 849 849 848 847 847 846 845 845 843 843 842 841 841 841 840 839 838 836 835 833 830 829 827 825 824 822 819 817 815 813 811 809 807 804 801 799 796 793 790 787 784 781 777 773 770 767 764 761 758 755 752 748 744 740 735
819 821 823 825 826 828 830 831 833 834 835 836 837 838 840 841 842 844 844 845 845 846 846 847 847 847 848 849 850 850 850 850 849 848 847 846 846 845 844 843 843 842 842 842 841 840 838 837 836 834 832 830 828 827 825 823 821 819 817 815 813 811 808 806 803 801 798 795 792 789 787 784 781 777 774 771 768 765 762 758 755 751 747 743 738
820 822 824 825 827 829 830 832 833 834 836 837 838 839 841 842 843 844 844 845 845 845 846 847 847 848 849 850 851 851 851 850 849 848 847 846 845 845 845 844 844 843 843 842 841 840 838 837 836 835 833 831 829 828 826 825 823 821 819 817 815 812 810 808 805 802 800 797 795 792 790 788 785 782 780 776 772 768 765 761 758 754 750 747 743
821 823 824 826 827 829 830 832 834 835 837 838 839 841 842 842 843 844 844 845 845 845 846 847 847 848 850 850 851 851 851 850 849 848 847 846 845 845 845 845 844 844 844 843 842 840 839 838 837 836 834 833 831 829 828 826 825 823 821 819 817 815 813 810 808 805 802 800 798 796 793 791 789 787 783 779 775 772 769 765 761 757 754 752 748
821 823 824 826 828 829 831 832 834 836 837 839 840 841 842 842 843 843 844 845 845 845 846 847 848 849 850 850 851 851 851 850 849 848 847 846 846 846 846 846 845 845 844 843 842 840 839 838 838 837 836 834 832 831 830 828 826 824 823 821 819 817 815 814 811 808 806 803 802 800 797 795 793 790 786 782 779 776 773 769 766 763 761 758 754
821 823 825 826 828 829 831 832 834 836 838 839 840 841 842 843 844 844 845 845 845 846 847 848 848 849 850 850 851 851 851 850 848 848 848 847 847 847 847 847 846 845 845 844 842 841 840 840 839 838 837 835 833 832 831 829 828 826 825 823 821 820 818 816 814 811 809 806 804 803 800 798 795 792 789 786 783 781 777 774 771 769 768 765 761
821 823 825 826 828 829 831 833 835 837 839 840 841 843 844 845 845 845 846 847 847 847 848 849 850 850 850 851 851 851 851 850 849 849 849 849 849 849 848 848 847 846 846 845 843 842 841 840 840 838 837 836 835 833 832 831 829 828 827 825 824 822 820 818 816 814 812 809 807 805 803 800 797 795 793 789 787 785 782 778 776 775 773 771 769
821 823 825 826 828 830 832 834 837 839 841 842 843 845 845 846 846 846 847 848 849 849 850 850 851 851 851 851 851 851 850 850 850 851 851 850 850 850 849 849 848 847 846 845 844 843 842 841 840 839 838 838 836 835 834 832 831 829 828 827 826 824 821 820 818 817 815 812 809 807 805 803 800 798 795 793 791 788 786 784 782 780 778 777 776
821 823 825 827 828 830 832 835 837 840 842 843 845 846 846 847 848 848 849 850 851 851 851 852 852 852 851 852 851 851 851 851 851 852 851 851 851 851 850 849 848 847 847 846 844 844 843 842 841 840 840 839 838 836 835 834 832 831 830 829 827 826 824 822 820 819 817 814 812 809 807 805 803 801 798 796 794 792 790 788 787 785 784 783 782
821 823 825 827 829 831 833 836 838 841 843 844 846 846 847 848 849 850 851 852 852 852 853 853 853 852 852 852 852 852 852 852 852 852 852 852 851 851 850 850 849 848 847 846 845 845 844 843 842 841 841 840 839 838 837 835 834 833 832 830 829 828 826 824 822 821 819 816 814 812 809 807 806 804 802 800 797 796 794 792 791 790 789 789 788
821 823 825 827 829 832 834 836 839 841 843 844 846 847 848 849 850 851 852 853 853 853 854 853 853 853 853 853 853 853 853 853 853 853 852 852 852 851 850 849 849 848 847 846 846 846 845 844 843 843 842 841 840 839 838 837 836 835 833 832 831 830 828 826 824 822 821 819 817 815 813 810 808 807 805 803 801 799 798 797 796 795 794 794 793
821 824 826 828 830 832 834 836 839 840 842 844 845 847 848 849 850 851 852 853 854 854 854 854 854 853 853 853 853 853 853 853 853 853 853 852 852 851 850 849 849 848 848 847 846 846 846 845 844 844 843 842 841 840 839 838 837 836 835 834 832 831 830 828 825 824 822 821 819 817 816 814 812 810 808 807 805 803 802 800 800 799 798 798 798
822 825 826 828 830 832 834 836 838 839 841 843 844 846 848 849 850 851 851 852 853 854 854 854 854 854 854 854 854 854 854 853 853 853 853 853 852 851 850 849 849 849 848 848 847 847 847 846 845 845 844 843 842 841 840 839 839 837 836 835 834 832 831 829 828 826 824 822 821 819 818 816 815 813 812 810 808 807 805 804 804 803 802 802 801
823 825 827 829 830 832 834 836 837 838 840 842 843 845 846 847 848 849 850 851 852 852 853 854 854 854 854 854 854 854 854 854 854 854 853 853 852 851 850 850 849 849 849 849 848 848 847 847 846 845 845 844 843 842 841 840 840 839 837 836 835 833 832 831 830 828 826 824 823 821 820 818 817 816 814 813 811 810 809 808 808 807 806 805 805
824 826 827 829 830 832 834 835 836 838 839 841 842 844 845 846 847 848 849 850 850 851 852 852 853 853 853 853 853 854 854 854 854 853 853 853 852 851 850 850 850 850 849 849 849 848 847 847 847 846 845 845 844 843 842 841 841 840 838 837 836 835 833 832 831 830 828 827 825 823 822 821 819 818 817 816 814 813 812 811 811 810 809 809 808
824 825 827 829 830 832 834 835 836 838 839 841 842 843 844 846 847 847 848 849 849 850 850 851 851 852 852 852 853 853 853 853 853 853 852 852 852 851 851 850 850 850 850 849 849 849 848 847 847 846 846 845 845 844 843 842 841 840 839 838 837 835 834 833 832 831 830 828 827 825 824 823 822 820 819 817 816 816 815 814 813 812 812 811 810
824 825 827 829 831 832 834 835 836 838 840 841 842 843 844 845 846 847 848 849 849 849 849 849 850 850 851 852 853 853 853 853 852 852 851 852 851 851 851 850 850 850 850 850 849 849 848 848 847 847 846 846 845 844 844 843 842 841 840 839 837 836 835 834 833 831 830 829 828 827 825 824 824 823 821 820 818 817 816 816 815 814 813 813 812
823 825 828 829 831 832 834 836 837 838 839 841 842 843 844 845 846 847 848 848 849 849 849 849 849 849 850 851 852 852 852 852 852 851 851 851 851 851 850 850 850 850 850 849 849 849 848 848 847 847 846 846 845 845 844 843 842 841 840 839 838 837 836 835 834 832 831 830 830 828 827 826 825 824 823 822 820 819 818 817 816 816 815 814 813
824 826 828 829 831 833 834 836 837 838 839 841 842 843 845 845 846 847 847 848 849 849 849 849 849 849 849 850 851 851 851 851 851 851 850 850 850 850 849 850 850 849 849 849 849 848 848 848 847 847 846 846 845 845 844 843 843 841 841 840 838 837 836 835 834 833 832 831 830 829 828 827 826 825 824 823 822 821 820 818 818 817 816 815 815
824 826 828 829 831 833 834 836 837 838 839 841 842 843 844 845 845 846 847 847 848 849 848 849 849 848 848 849 850 850 850 850 850 850 849 849 849 849 849 849 849 848 848 848 848 848 848 847 847 847 846 846 845 845 844 843 843 842 841 840 839 838 837 836 835 834 833 832 831 829 829 828 827 826 825 824 823 822 821 820 819 818 817 817 816
824 826 828 830 831 833 834 835 836 838 839 841 842 843 843 844 845 846 846 847 848 848 848 848 848 848 848 849 849 849 849 849 849 849 848 848 848 848 848 848 848 848 847 847 847 847 847 846 846 846 846 845 845 844 844 843 842 841 841 840 839 838 837 836 835 834 833 832 831 830 829 828 828 827 826 825 824 823 822 821 821 819 818 818 817
825 826 828 830 831 833 834 835 836 838 839 840 841 842 843 844 845 845 845 846 847 847 847 848 847 847 847 847 848 848 848 847 847 847 847 847 847 847 847 847 847 847 846 846 846 846 846 846 845 845 845 845 844 844 843 843 842 841 840 839 839 838 837 836 835 834 833 832 831 830 829 828 828 827 826 825 824 824 823 822 821 820 819 819 818
825 826 828 829 831 832 833 834 836 837 839 840 841 842 843 844 844 844 845 845 845 845 846 846 846 846 846 846 846 846 846 846 846 846 846 846 846 846 846 846 845 845 845 845 845 845 845 845 844 844 844 844 843 843 842 842 841 841 840 839 838 837 836 835 835 834 833 832 831 831 830 829 828 827 826 825 825 824 823 822 822 821 820 819 818
824 826 827 828 830 831 833 834 835 837 838 840 841 841 842 843 843 844 844 844 844 844 845 845 845 845 845 845 845 844 844 845 845 845 845 845 844 844 845 844 844 844 844 844 844 844 844 844 843 843 842 842 842 841 841 840 840 839 839 838 837 836 835 834 833 833 832 832 831 830 830 829 828 827 826 825 824 824 823 822 821 820 820 819 818
824 825 827 828 829 831 832 833 834 836 837 839 840 840 841 841 842 842 842 843 843 843 844 844 844 844 844 843 843 843 843 843 843 843 843 843 843 843 843 842 842 843 843 843 843 843 843 843 842 842 841 841 840 839 839 838 838 837 837 836 836 835 834 833 832 831 831 831 830 829 829 828 827 827 826 825 824 823 822 822 821 820 819 819 818
823 825 826 827 829 830 831 832 833 835 836 837 838 839 839 840 840 840 840 841 841 841 842 842 842 842 842 841 841 841 841 841 841 841 841 841 841 841 841 841 840 840 840 840 841 841 841 841 841 840 840 839 839 838 837 837 836 836 835 835 834 834 833 832 831 830 830 829 828 828 827 827 826 826 825 824 823 823 822 821 820 819 819 818 817
822 824 825 827 828 829 830 831 832 834 835 836 836 837 838 838 839 839 839 840 840 840 840 840 840 840 840 840 839 839 839 839 839 839 839 839 839 839 839 839 839 838 838 838 838 838 838 838 838 838 838 837 837 836 836 835 834 834 834 833 833 832 831 831 830 829 828 827 827 826 825 825 824 824 823 823 822 821 821 820 819 818 818 817 816
822 823 824 826 826 827 829 830 831 832 833 834 835 835 836 837 837 838 838 838 838 838 838 838 838 838 838 838 838 838 838 838 838 837 837 838 838 838 837 837 837 837 836 836 835 835 834 834 834 834 834 834 833 833 832 832 832 832 831 831 831 830 829 829 828 827 826 825 824 824 823 822 822 821 821 820 820 819 819 818 817 817 816 815 814
821 822 823 825 825 826 827 828 829 830 831 832 833 834 834 834 835 835 836 836 836 836 836 836 836 836 836 836 836 836 836 836 836 836 836 836 836 836 835 835 835 835 835 834 834 833 832 831 831 830 830 830 829 829 829 828 828 828 828 827 827 827 826 826 825 824 823 823 822 821 820 819 819 818 817 817 817 816 816 816 815 814 814 813 812